Wind_Gust
11 10 12 13 12 12 11 10 11 12 12 11 12 11 10 10 9 9 9 8 8 10 11 12 13 13 13 14 14 13 13 14 13 11 11 10 7 7 7 9 9 8 9 11 11 14 16 16 16 16 16 14 16 13 14 15 15 15 15 15 16 16 18 22 27 32 25 17 23 26 26 29 31 27 31 30 28 27 24 26 27 26 26 26 28
16 14 13 14 12 12 12 12 13 13 12 11 12 12 11 10 9 9 9 9 9 11 12 12 12 13 13 14 14 13 13 13 12 11 12 13 8 9 7 9 9 8 10 10 11 13 14 14 16 15 15 15 15 17 16 16 17 16 17 17 17 18 16 23 25 30 36 26 25 24 28 22 30 27 30 30 29 28 29 29 27 26 28 27 26
16 14 15 15 14 13 12 12 12 11 11 10 11 12 10 9 10 9 9 9 11 14 14 14 13 13 14 14 13 13 14 13 12 12 12 13 11 8 8 9 9 8 11 11 11 11 11 12 15 16 14 15 15 14 13 14 16 17 18 19 19 20 19 19 26 30 31 33 29 30 29 29 28 31 29 28 27 29 30 29 30 30 28 27 29
17 16 14 14 13 12 12 12 12 12 11 11 11 10 10 9 9 10 10 10 13 13 14 14 14 14 14 14 13 14 14 13 13 13 12 12 13 10 7 9 9 8 10 11 11 11 11 11 15 13 13 12 14 14 13 14 15 16 18 18 18 20 20 19 21 28 30 34 29 31 29 32 33 28 30 29 29 28 27 30 29 28 27 26 24
17 17 16 15 14 13 12 12 12 12 11 10 10 10 9 9 9 11 9 10 11 13 14 14 15 14 15 13 14 14 14 14 14 13 13 13 14 13 9 7 8 8 8 9 11 11 12 12 13 12 12 12 12 13 15 16 17 18 19 19 20 20 21 22 27 27 30 34 35 30 29 28 30 30 30 33 30 29 26 28 28 29 28 25 28
16 16 15 15 15 14 13 12 12 12 11 11 11 10 10 9 9 9 12 14 13 13 13 14 15 15 14 13 14 14 14 14 15 15 13 14 15 15 11 7 8 8 8 8 9 9 10 11 12 12 12 12 14 13 15 16 17 19 19 19 20 20 21 23 24 28 28 31 32 38 25 31 31 28 28 28 30 34 31 28 25 24 27 29 27
17 16 15 15 16 14 14 12 12 11 10 10 10 10 10 9 11 11 11 13 13 12 13 14 14 14 13 13 14 14 14 14 14 14 14 14 14 16 13 7 8 7 6 8 8 9 8 9 9 10 12 11 13 14 16 17 19 19 20 19 18 20 21 22 24 26 28 31 32 31 35 27 26 33 28 29 31 32 37 37 37 27 25 25 30
17 16 15 14 14 14 13 12 11 11 11 11 11 10 11 11 10 10 11 13 13 13 14 14 13 13 13 13 13 12 12 13 13 14 13 13 13 14 13 9 7 8 6 6 7 8 10 9 7 9 10 11 12 14 18 19 19 18 18 18 19 21 22 23 22 25 29 29 31 33 27 30 30 25 32 29 31 29 30 34 39 40 40 30 26
17 17 16 15 14 14 12 12 11 12 12 12 12 12 11 10 10 10 9 11 13 14 14 14 13 13 13 12 13 12 11 11 11 12 13 14 13 12 14 11 6 5 6 5 7 9 8 8 7 9 17 16 16 16 17 17 19 19 18 18 20 20 20 20 22 24 28 30 32 28 31 32 32 33 33 31 33 36 38 35 37 36 39 42 36
17 17 17 16 14 15 14 12 13 13 13 13 12 11 11 10 10 10 11 13 15 16 15 14 14 13 12 12 11 11 12 10 14 14 9 11 11 11 13 10 5 5 8 5 6 7 7 7 11 18 17 13 15 13 15 16 18 20 21 20 20 18 17 21 23 25 30 31 32 31 31 30 31 31 31 30 31 31 32 34 36 35 36 38 39
17 17 17 16 15 15 14 14 14 14 13 12 12 12 12 11 11 11 11 14 16 16 16 14 13 13 13 12 10 10 12 14 16 17 18 17 12 11 12 10 5 6 7 7 6 6 8 7 5 10 12 8 10 12 14 17 16 18 22 20 17 19 20 21 19 19 27 28 32 30 30 30 29 29 29 33 30 32 32 33 36 37 35 36 41
18 18 18 16 16 16 15 15 15 15 14 14 13 13 12 12 11 11 11 12 14 15 15 13 13 12 11 11 10 10 11 12 16 18 18 21 15 13 12 8 7 5 6 9 5 6 6 6 6 6 8 10 11 12 15 16 17 19 21 20 19 19 16 18 20 21 21 31 30 28 29 27 31 29 30 29 31 30 29 29 33 32 35 35 37
18 18 17 17 16 15 15 15 15 14 14 14 12 12 13 12 12 11 11 9 11 14 13 13 12 12 11 11 10 11 11 12 16 18 19 20 21 17 12 7 8 5 6 9 6 6 6 7 6 7 8 12 13 13 15 16 16 18 18 17 17 17 17 20 18 19 19 22 26 27 27 30 30 30 32 34 32 31 30 30 29 31 32 35 35
18 18 17 17 16 16 16 15 15 15 13 13 12 13 12 12 11 10 10 9 11 12 12 12 12 11 10 10 9 10 10 11 16 18 19 21 21 18 10 10 10 11 12 16 8 5 7 8 8 6 7 7 11 14 15 15 17 18 17 17 17 16 16 18 19 20 16 15 17 23 25 23 30 30 31 30 32 33 33 32 30 33 34 37 33
18 16 17 17 16 15 17 16 16 15 14 13 13 13 13 13 13 12 12 10 9 10 12 11 11 11 10 9 9 9 9 12 15 17 18 21 22 16 11 12 13 12 13 15 12 4 7 9 7 4 5 8 14 19 18 15 16 17 16 18 19 17 16 16 16 16 15 14 17 19 22 23 25 28 29 29 28 30 30 33 33 32 35 35 34
18 17 17 16 17 16 16 16 15 14 14 14 14 13 11 12 12 10 10 10 9 8 8 10 9 9 10 10 9 8 7 10 13 15 17 20 20 16 11 10 12 13 16 15 14 6 7 8 6 4 6 8 15 19 19 16 16 17 18 18 19 18 18 14 19 19 17 16 17 19 22 26 26 31 33 33 31 28 27 28 26 27 28 27 32
18 17 17 17 16 16 16 16 15 15 15 14 13 11 12 12 11 11 12 10 10 10 9 8 9 10 8 8 9 7 7 7 10 12 14 17 15 15 11 11 12 14 15 15 14 7 7 6 3 3 8 16 18 18 20 18 16 18 19 19 20 19 22 21 17 18 18 19 21 23 22 25 27 30 31 32 31 30 30 29 27 25 26 28 31
19 18 17 17 17 16 16 16 16 15 14 14 13 12 12 11 11 11 12 12 12 11 10 10 8 8 9 9 9 9 6 5 8 10 12 15 14 13 11 11 11 14 15 14 17 9 6 9 7 11 18 19 18 20 22 21 18 18 19 20 21 21 23 23 21 19 15 16 19 22 24 26 29 29 29 29 30 27 28 32 29 28 27 24 33
19 18 18 17 17 16 16 15 15 15 14 13 12 12 13 13 12 12 12 12 13 12 12 11 9 8 7 8 12 11 8 5 5 8 10 11 13 12 11 10 12 12 14 15 15 12 10 9 12 19 20 20 21 21 25 23 19 18 18 19 20 21 24 26 26 23 19 21 24 26 27 26 28 28 28 28 28 27 27 27 27 27 27 24 25
19 18 18 17 16 16 15 15 14 15 14 12 11 12 11 11 11 11 10 11 12 10 11 12 11 10 10 8 10 11 9 6 4 6 7 8 8 10 9 9 11 13 13 14 16 12 11 13 13 14 19 18 20 24 25 26 21 17 16 16 18 22 25 23 23 22 18 23 25 26 28 28 29 27 26 27 28 25 25 25 26 26 28 25 24
19 18 18 17 17 16 14 15 16 13 11 12 12 11 11 11 9 9 8 10 11 11 12 11 11 11 11 9 9 9 10 8 4 4 5 7 8 6 8 7 8 11 11 12 12 12 12 12 13 14 18 21 23 25 25 25 22 19 14 12 17 24 24 22 22 17 20 22 25 27 28 28 29 28 28 28 27 26 25 24 25 23 26 27 25
18 18 18 18 17 16 16 15 15 14 11 12 12 10 8 9 10 11 11 10 10 10 8 8 10 10 10 9 9 10 9 10 5 4 4 7 7 6 7 7 7 9 11 11 12 10 11 12 11 17 21 24 24 25 26 24 24 18 17 14 19 22 28 19 15 17 21 23 25 28 29 30 31 32 31 30 28 25 27 25 24 24 23 22 25
20 19 18 18 17 17 16 16 14 12 12 12 11 10 10 11 10 10 9 8 9 8 9 9 9 10 8 9 12 11 9 6 7 5 4 8 7 10 9 5 8 8 9 11 10 12 10 11 15 19 23 25 25 25 24 24 17 15 19 17 18 23 19 16 18 18 21 23 26 29 31 31 32 34 32 30 28 27 27 26 27 25 24 23 21
20 19 18 18 17 17 16 14 12 11 12 13 12 11 9 9 11 11 9 9 10 9 8 10 8 8 9 10 12 12 12 8 6 9 6 8 7 11 11 9 8 9 10 10 11 10 11 14 18 22 24 25 25 23 21 18 17 20 18 17 22 19 16 18 19 19 20 23 26 29 31 31 31 33 34 33 31 30 28 25 25 25 23 22 22
19 19 19 19 17 17 14 13 12 11 11 12 11 10 8 11 12 9 10 10 11 10 9 7 8 9 12 12 12 11 11 9 5 7 9 9 8 11 12 11 12 13 13 12 8 10 15 21 25 25 25 26 22 17 12 13 19 20 18 20 21 17 15 20 20 20 22 25 27 28 30 30 29 29 31 30 28 26 28 28 27 24 21 18 16
20 20 20 19 18 20 16 15 13 11 11 11 10 9 10 10 10 9 10 12 12 9 9 6 8 9 9 11 12 11 9 8 8 6 6 6 7 10 12 12 12 14 15 12 11 17 21 25 26 24 21 18 16 13 11 17 19 20 17 19 20 17 17 21 19 21 22 25 27 28 28 30 31 30 27 26 26 28 28 29 31 32 30 30 27
20 18 19 19 16 17 16 14 13 12 10 10 11 10 10 8 9 10 10 11 8 9 9 8 8 7 10 10 12 10 10 9 7 5 5 5 7 9 10 11 10 9 11 12 12 17 23 23 24 25 19 17 14 12 11 13 17 18 13 18 20 19 19 19 20 21 22 24 26 27 28 27 26 27 31 30 29 28 26 27 26 27 27 24 20
21 21 20 17 16 17 16 12 15 11 11 12 10 10 8 8 8 7 8 7 8 7 9 9 9 7 7 9 12 11 10 8 6 4 3 4 7 9 10 10 10 10 12 12 16 19 19 15 20 18 14 11 11 11 13 13 13 15 15 16 19 18 18 16 16 18 22 24 24 25 27 28 29 29 30 29 28 29 29 29 29 28 26 26 31
19 19 19 18 16 15 14 14 13 11 11 10 5 5 9 10 14 13 7 6 10 11 11 9 8 6 8 8 11 10 6 6 5 6 4 5 6 8 10 11 11 13 13 11 15 19 16 16 16 17 13 10 10 11 15 16 14 16 15 16 18 18 18 18 22 22 24 26 26 27 28 27 28 26 28 31 30 29 29 29 29 28 26 23 25
20 20 18 16 17 16 15 14 12 12 11 10 13 11 8 13 14 15 8 5 10 10 8 7 9 10 9 7 7 7 8 7 7 9 8 8 9 10 12 14 13 14 13 17 11 14 15 14 16 13 12 9 10 10 14 14 14 16 14 13 19 17 18 20 21 21 23 24 25 25 27 26 27 28 28 30 29 29 29 24 30 28 28 29 29
20 19 17 16 18 17 16 14 13 13 13 13 13 15 12 12 11 15 15 10 9 11 11 11 8 7 12 6 4 9 9 8 10 9 9 9 10 12 14 14 16 18 12 12 16 15 16 15 15 12 9 9 8 11 12 12 12 13 14 16 17 17 18 21 21 21 23 24 24 23 24 26 26 27 26 28 28 29 28 28 27 27 29 27 26
20 19 17 17 18 17 16 15 14 13 13 13 14 14 14 11 6 9 9 11 9 9 9 9 9 8 7 8 8 5 6 7 10 9 9 10 12 13 15 15 16 18 15 5 9 15 13 12 11 10 9 9 9 10 11 11 11 14 13 17 17 13 16 19 20 21 23 24 24 24 27 26 26 26 26 26 26 26 28 29 30 29 29 26 27
19 17 17 19 19 18 17 16 15 13 13 14 13 13 14 13 12 8 3 6 5 3 2 4 5 6 7 7 9 6 6 4 6 8 10 13 13 14 15 16 16 18 14 11 8 11 12 12 9 10 9 9 9 11 12 12 12 13 14 16 17 17 19 19 16 20 20 23 22 22 24 25 24 25 25 24 27 28 27 28 29 27 27 28 29
18 17 18 19 19 17 17 17 15 12 13 15 15 16 15 14 15 14 12 8 4 5 5 8 9 7 9 10 9 11 11 12 12 12 13 13 14 12 9 16 19 22 15 12 6 9 10 10 8 9 9 9 8 10 10 12 11 11 13 15 16 17 21 21 19 21 21 23 22 23 25 25 24 25 26 25 24 24 26 26 27 29 29 28 28
18 13 15 15 17 15 15 15 14 10 13 14 16 16 15 17 17 16 16 15 14 14 14 15 12 14 17 13 13 12 13 15 15 14 14 14 14 10 10 14 15 18 19 12 10 12 8 8 7 8 8 8 9 9 10 12 11 12 13 15 16 15 19 20 19 21 22 22 22 23 24 25 24 24 24 25 25 26 26 26 27 28 28 27 26
18 16 15 19 15 13 12 16 13 11 12 12 15 15 15 15 17 19 16 16 14 14 12 14 16 15 21 16 13 12 14 17 15 15 14 14 9 7 9 13 12 14 13 16 13 13 6 6 5 8 8 8 9 9 9 11 10 13 12 13 13 15 17 16 16 19 20 20 20 22 21 24 24 22 23 23 23 21 21 23 23 25 25 25 24
16 17 17 16 15 14 13 12 13 12 8 11 14 15 15 15 19 19 16 17 16 15 16 16 13 9 10 14 14 13 15 15 15 11 12 12 7 3 10 12 14 15 13 15 14 13 8 6 5 5 7 8 9 9 8 9 8 12 10 12 14 14 14 13 13 14 18 19 19 20 20 23 23 23 22 23 23 21 19 19 20 23 25 27 20
14 15 16 15 13 14 13 10 14 12 13 10 11 13 14 15 19 19 16 17 19 18 15 15 12 14 16 20 15 15 18 12 7 9 12 11 12 11 14 14 13 15 16 15 15 13 6 4 6 6 6 7 8 10 7 10 7 9 10 12 11 10 13 14 11 15 15 16 18 19 19 21 21 22 23 22 22 22 21 19 19 22 22 25 24
15 13 15 14 11 15 13 10 11 13 11 12 11 10 11 11 16 16 17 16 16 16 13 14 15 16 18 16 13 14 10 8 9 13 14 13 12 12 14 15 16 16 16 16 15 11 3 3 3 4 4 6 8 8 8 9 8 8 8 8 10 11 13 12 13 14 15 16 17 17 17 18 18 20 20 20 22 20 20 19 19 20 21 23 25
14 13 16 17 13 15 13 10 11 13 11 12 11 10 9 10 12 14 14 13 12 14 14 14 15 16 18 16 12 14 15 16 14 15 14 14 14 16 16 16 16 15 15 15 13 5 3 3 3 5 5 5 6 8 7 9 8 6 5 6 10 12 12 10 11 14 15 15 16 17 17 17 17 18 20 20 20 20 19 18 17 16 17 17 19
14 14 14 15 13 13 13 11 10 12 11 11 12 9 10 12 10 10 12 12 11 11 11 11 13 14 13 17 17 18 18 17 17 16 16 17 15 13 13 14 15 14 14 11 6 5 4 4 3 3 4 4 5 6 6 9 10 9 5 5 7 10 11 11 10 11 13 13 16 16 16 17 16 18 21 21 16 17 19 17 15 15 16 16 17
13 15 19 16 16 13 13 12 10 13 12 12 12 11 7 7 10 9 12 11 11 12 11 11 12 12 11 20 21 22 18 14 14 14 15 15 14 13 10 10 11 12 10 7 7 6 4 5 5 4 3 3 5 6 6 10 10 11 5 4 7 8 10 11 11 11 11 12 15 15 14 16 16 16 21 13 19 19 19 19 17 14 13 15 16
11 15 19 16 16 13 12 11 10 12 12 13 13 9 10 9 10 10 9 11 11 10 9 10 10 8 11 11 20 20 17 14 10 14 13 13 11 10 11 10 10 11 10 10 10 8 9 9 6 7 5 4 5 4 5 8 11 9 3 3 6 6 8 9 11 12 11 12 14 14 13 14 15 14 17 18 17 19 18 18 18 16 14 13 13
12 15 16 16 16 14 13 12 13 11 12 12 14 14 12 11 9 10 12 12 12 12 13 12 12 10 9 9 9 12 13 12 12 12 12 12 13 12 14 13 10 9 8 7 8 9 10 9 8 8 7 7 6 5 5 7 9 10 2 4 4 4 5 7 9 11 11 11 13 14 14 12 14 14 15 17 16 17 19 19 18 17 15 14 12
14 15 18 17 16 16 16 14 12 12 11 9 12 13 13 14 13 12 11 12 13 13 12 12 12 11 10 13 12 13 14 14 13 12 12 12 12 13 13 13 12 12 10 8 7 8 8 8 9 8 7 8 6 6 6 6 9 12 6 8 7 4 4 6 6 9 8 8 11 12 13 11 12 14 14 16 15 15 16 17 17 13 17 15 14
17 16 16 19 17 16 15 16 12 12 12 12 11 13 13 14 14 13 13 12 11 12 12 13 13 14 13 14 15 15 15 13 14 14 13 13 13 13 12 12 12 13 11 11 11 10 11 11 12 11 11 10 9 9 8 7 9 12 8 10 10 9 7 5 5 7 8 7 10 11 12 10 11 12 12 14 14 13 14 15 16 16 14 12 14
14 14 16 17 19 17 16 15 15 14 14 14 13 13 11 12 13 13 12 13 12 11 11 12 12 13 14 13 15 16 17 16 15 15 15 15 15 15 15 13 13 10 11 10 10 12 13 13 12 12 11 11 10 10 10 9 9 9 7 11 10 9 8 7 6 5 6 8 8 9 11 10 11 12 14 13 13 15 14 14 13 15 16 12 11
13 14 14 17 17 17 16 15 16 14 16 13 12 12 12 12 12 12 12 14 16 15 12 12 12 12 12 13 13 15 15 17 17 16 16 15 15 15 15 13 13 13 11 11 12 13 13 13 12 12 11 10 10 11 11 11 10 11 8 12 11 12 10 7 5 4 5 7 7 8 9 10 9 10 11 10 11 12 14 15 15 15 15 14 12
13 15 14 17 19 18 17 16 15 16 18 15 13 14 13 14 13 13 13 14 15 15 15 16 15 13 13 13 13 13 15 14 16 16 16 16 15 14 14 13 11 12 13 13 14 13 13 12 12 12 12 11 12 13 13 12 12 11 9 11 13 14 13 11 7 7 6 6 7 7 9 9 9 9 11 9 11 11 12 13 14 15 16 13 13
13 13 15 15 17 19 18 17 16 17 16 17 15 14 13 13 13 13 14 13 13 14 15 15 16 16 15 14 12 13 13 13 15 16 16 16 16 15 14 13 12 12 13 14 15 14 13 12 11 12 13 14 14 14 13 13 13 13 11 13 13 15 13 13 11 10 9 5 5 6 8 10 8 8 9 10 8 10 11 12 13 14 13 12 13
15 12 11 13 15 15 15 17 17 16 16 16 17 16 15 14 14 14 14 14 14 14 13 14 15 15 15 16 15 16 15 14 14 13 13 14 14 14 15 13 13 13 13 12 11 11 11 12 14 15 14 14 14 13 12 13 12 13 12 14 16 16 15 13 13 10 11 7 5 6 8 10 8 9 10 11 9 9 11 11 13 13 11 11 12
Wind_Speed
7 6 6 7 6 5 4 5 6 6 7 7 6 5 5 5 5 5 5 5 5 7 7 8 7 7 8 8 8 8 8 8 7 6 6 6 4 4 4 5 4 4 6 7 7 8 9 9 8 8 6 5 5 5 5 6 6 6 6 7 7 7 8 9 11 13 9 7 9 9 11 13 12 12 14 13 14 13 12 12 14 13 13 12 14
6 7 4 4 5 6 8 7 8 8 8 7 7 6 5 5 4 5 5 4 5 7 7 7 7 8 8 9 8 8 8 7 7 6 7 8 5 4 4 6 6 5 6 6 7 7 7 7 7 5 4 3 5 5 6 7 8 8 8 8 7 8 8 9 10 11 16 11 10 12 12 11 14 13 15 15 15 14 15 13 12 12 12 11 12
5 7 7 7 7 7 7 7 7 7 7 6 6 6 5 5 5 6 5 6 7 8 8 8 8 8 9 8 8 8 7 6 6 7 7 7 6 4 4 5 4 5 7 7 7 6 6 6 4 3 2 4 6 6 6 8 7 8 9 7 7 7 7 8 8 12 15 14 12 13 12 13 12 15 16 14 13 13 15 14 13 10 9 11 12
7 7 7 7 7 7 7 7 7 7 6 5 5 5 5 5 5 5 5 6 8 8 9 9 9 9 8 8 8 7 7 7 7 6 6 6 7 6 4 4 4 4 6 6 6 5 5 4 3 3 4 6 6 6 7 7 7 7 7 6 6 7 8 7 8 9 10 13 12 12 11 12 12 15 13 12 13 12 11 12 12 12 12 11 11
7 7 7 8 7 7 7 7 7 6 6 6 6 6 6 6 4 4 5 6 7 8 8 9 9 8 8 8 7 7 6 6 7 7 7 6 6 7 4 3 5 4 5 5 6 5 3 3 2 5 5 5 5 6 8 9 7 6 6 6 6 6 7 8 8 8 10 12 12 10 11 11 11 13 14 16 14 13 12 13 12 12 13 11 10
8 7 7 7 7 8 7 7 7 7 6 6 7 6 7 6 6 6 7 8 8 8 8 8 8 9 8 7 6 6 5 5 6 6 6 6 6 6 6 3 4 4 4 5 5 4 3 2 5 6 5 5 4 6 6 7 6 6 6 7 6 6 7 8 8 9 9 11 12 13 11 11 12 11 14 15 15 15 13 13 12 10 13 13 12
8 8 7 7 8 8 8 7 7 6 6 6 6 6 6 6 6 7 7 8 8 8 8 9 8 9 7 6 6 5 5 5 6 6 5 6 6 6 6 4 4 2 3 5 4 5 4 4 5 4 4 3 4 5 5 5 5 7 7 7 7 7 7 7 8 8 8 9 10 10 11 10 11 13 12 14 15 14 16 17 16 12 11 12 14
8 7 7 7 8 8 7 7 7 6 5 6 6 7 6 6 6 6 7 8 8 8 9 9 8 7 6 5 5 4 5 6 6 5 5 5 5 5 4 5 2 2 3 4 4 4 5 4 4 4 4 3 4 3 4 5 4 6 7 7 7 8 7 7 7 8 8 8 9 10 9 9 9 8 11 13 13 12 11 13 18 18 18 13 12
9 8 8 8 8 8 7 6 6 6 7 7 7 7 6 5 5 6 6 6 7 9 8 8 8 7 6 5 5 5 5 5 4 4 6 6 5 5 5 5 2 3 4 3 4 4 4 4 3 2 3 7 6 3 6 6 5 6 7 7 8 8 8 7 8 8 8 8 9 9 10 10 9 11 11 12 13 13 14 13 13 16 17 18 15
9 9 9 8 8 8 8 6 7 6 7 8 7 6 5 5 5 6 7 8 9 9 9 8 7 6 5 4 4 5 4 4 5 7 6 3 4 4 5 3 3 3 4 3 2 3 3 4 3 9 6 5 5 7 7 9 9 7 7 8 8 8 8 8 9 8 8 9 10 11 12 11 12 12 12 12 13 14 13 13 15 14 14 16 16
9 9 9 8 8 8 7 7 7 8 7 7 7 6 6 6 6 6 7 9 10 10 9 8 6 5 5 4 4 4 4 4 8 9 8 7 5 3 3 4 3 3 4 2 2 2 1 3 3 5 5 3 4 8 8 9 10 11 13 13 12 10 9 10 9 9 9 9 9 10 11 13 13 13 12 11 11 13 13 13 13 14 13 15 18
10 10 9 8 8 8 8 8 8 8 7 7 7 7 7 7 6 6 7 8 9 9 9 7 6 5 4 4 4 4 4 7 10 12 13 13 9 5 3 4 2 2 4 2 1 1 1 3 3 3 2 2 4 4 6 9 11 12 13 14 15 16 13 10 10 10 10 10 11 11 12 12 13 12 12 13 15 15 14 14 13 13 15 15 15
10 9 8 8 8 8 8 9 9 7 8 8 7 7 7 6 6 6 6 6 7 9 8 8 7 5 5 5 4 4 4 8 10 12 13 13 13 9 5 4 5 4 4 5 1 2 2 4 3 2 1 5 5 4 4 5 9 12 13 13 14 14 15 16 15 11 10 9 10 12 12 13 13 13 14 16 16 16 16 14 13 14 14 15 17
10 10 9 9 9 8 9 9 8 8 8 7 7 7 7 7 6 5 5 6 7 8 8 8 6 6 5 5 4 4 4 6 10 12 13 13 13 9 5 5 6 7 7 9 4 2 4 4 2 1 2 4 4 4 5 5 7 7 7 7 7 10 13 15 16 17 12 8 9 12 14 11 12 14 16 16 16 16 16 16 16 15 15 16 17
10 10 9 9 9 9 9 8 9 8 8 8 8 8 7 7 7 6 6 6 5 6 8 7 6 6 5 5 5 5 3 8 10 12 12 13 12 9 6 6 6 6 6 7 8 2 4 3 1 1 3 5 5 7 7 6 7 7 7 8 8 8 9 10 10 9 8 7 8 11 13 12 12 15 16 15 16 15 14 17 18 17 17 16 14
10 9 10 9 9 9 9 10 9 8 9 9 9 8 7 7 7 6 5 5 4 4 5 6 5 5 5 5 5 4 3 7 10 11 12 12 11 6 5 5 6 6 6 6 6 3 1 2 1 2 4 5 9 14 12 9 8 9 9 9 9 8 8 10 15 14 11 9 9 11 12 13 16 17 18 17 16 15 15 14 14 14 14 13 14
10 10 9 9 10 10 10 10 9 9 9 9 7 6 7 7 7 6 7 6 6 5 4 5 5 6 5 4 5 4 4 5 8 9 11 11 8 6 4 6 5 6 6 5 4 4 2 0 1 3 5 6 11 14 16 14 10 10 9 9 9 9 10 9 12 15 15 15 17 19 18 19 21 22 23 24 19 18 15 15 14 12 14 14 14
10 10 9 10 10 10 9 9 10 9 8 8 8 7 7 6 6 6 7 7 7 6 5 5 4 5 6 5 5 4 3 3 6 8 9 9 7 4 4 5 6 5 6 7 6 5 4 6 5 5 7 8 13 16 18 15 10 10 9 9 11 10 11 9 7 9 13 14 15 16 18 20 21 21 21 22 22 19 14 15 15 14 13 12 15
10 10 10 10 10 10 9 9 9 9 9 8 7 8 8 8 7 7 7 7 7 7 6 6 4 4 4 5 8 6 4 2 4 5 6 5 4 3 4 4 5 6 6 7 7 7 6 6 10 11 10 12 16 17 21 17 10 10 9 8 9 11 11 10 11 11 10 8 10 13 15 17 16 15 16 21 22 20 14 15 14 14 13 11 12
9 9 10 10 9 9 9 9 9 9 9 7 7 7 6 7 7 7 6 7 7 6 6 6 6 4 4 5 5 5 4 2 1 1 4 5 5 3 3 4 4 4 5 5 6 7 7 6 8 11 14 15 17 19 19 20 12 9 8 7 9 11 11 10 11 11 10 9 11 13 15 15 15 14 14 14 15 15 15 14 14 13 13 13 12
10 11 10 10 9 9 8 9 10 8 7 7 7 7 7 7 6 6 5 7 7 7 7 6 6 5 4 4 5 5 4 4 1 0 3 5 5 5 3 2 2 3 4 5 5 6 7 7 6 11 15 17 18 19 18 18 16 9 7 6 7 12 14 9 11 14 10 11 12 13 14 14 14 13 13 13 13 13 13 14 14 13 13 14 12
11 10 11 10 9 9 10 9 9 8 7 7 7 6 5 6 6 6 6 6 7 6 5 5 6 6 5 4 4 4 5 7 3 3 2 5 5 5 4 2 1 1 4 4 5 6 7 6 7 12 17 17 17 18 18 16 16 7 9 11 15 17 13 8 7 9 10 10 11 12 14 14 14 14 14 14 14 13 14 13 13 13 12 12 13
11 11 11 10 10 10 10 10 8 7 7 7 7 7 6 7 6 6 6 5 5 5 5 5 4 5 4 5 4 4 4 4 6 2 2 5 5 7 5 3 6 2 2 5 5 7 5 6 9 15 18 16 16 17 16 15 10 9 15 14 14 17 12 7 8 9 10 11 11 13 14 14 15 15 15 15 14 14 13 13 15 14 13 12 12
11 11 10 10 10 10 10 9 7 7 7 7 7 7 6 6 7 6 6 6 5 5 4 6 5 5 5 5 4 3 3 2 4 5 3 5 6 7 8 8 7 4 3 4 5 5 6 7 11 17 18 17 16 15 14 11 9 14 15 15 14 13 8 8 9 10 10 11 12 13 14 14 14 15 16 16 16 16 15 14 14 14 13 12 12
11 11 10 10 10 9 8 8 8 7 7 7 7 6 6 7 7 6 5 4 4 5 5 4 4 5 7 6 6 5 4 3 2 2 7 6 6 7 8 9 9 9 6 5 4 5 10 15 17 17 17 16 15 13 9 11 14 14 14 14 12 8 8 8 10 10 11 12 12 13 13 14 13 13 14 15 15 14 14 14 15 14 12 10 8
11 11 11 10 10 10 9 8 7 7 7 6 6 6 6 6 6 6 5 6 5 5 5 3 6 5 6 7 6 5 3 3 1 2 3 4 4 6 8 8 8 8 6 6 8 12 14 15 17 16 14 13 9 5 6 9 13 14 13 11 7 7 7 9 10 10 11 12 13 13 14 13 14 14 13 13 13 14 14 13 15 16 15 15 13
11 11 11 10 9 9 10 8 7 7 6 6 6 6 6 4 5 5 6 7 5 6 6 5 5 5 6 6 7 6 3 2 2 1 2 2 3 4 4 5 6 7 7 7 8 8 11 11 11 13 11 14 10 8 9 9 8 8 7 7 7 7 7 8 10 10 11 12 12 13 13 13 13 13 13 14 14 14 14 14 14 14 14 13 10
12 12 12 10 9 9 9 11 10 7 7 7 6 4 4 4 3 3 5 5 5 5 6 6 5 4 5 6 7 5 3 2 1 1 0 1 3 3 3 3 3 3 5 6 7 8 7 9 10 8 7 7 7 7 7 7 7 6 7 7 8 6 9 11 11 9 10 11 11 12 13 13 14 14 13 13 14 14 15 14 14 14 13 13 13
12 12 11 9 9 8 8 8 7 7 7 5 2 2 5 6 6 4 2 0 6 7 6 6 5 4 5 6 7 6 4 3 3 5 2 5 2 4 5 5 4 6 4 5 6 7 6 7 7 8 7 6 7 7 7 7 8 7 7 7 8 7 8 9 10 11 11 11 12 13 13 13 14 13 12 13 14 15 15 15 14 14 13 11 12
12 11 10 9 9 9 8 8 7 6 6 6 5 5 5 8 9 8 2 1 7 9 8 4 5 6 6 2 4 4 5 4 7 8 7 7 7 8 9 8 7 6 8 9 4 5 5 5 7 6 7 5 6 6 7 7 7 8 8 7 8 7 9 10 10 10 11 11 11 12 13 13 14 14 13 13 14 14 15 15 15 14 13 14 14
11 10 10 9 10 9 9 8 7 6 7 6 5 7 6 7 8 6 10 8 8 10 9 9 7 7 8 3 2 8 8 7 9 8 8 8 8 8 9 8 8 5 4 6 4 3 4 6 7 7 5 4 4 5 6 7 7 7 8 7 7 8 7 8 9 9 10 11 12 11 11 12 13 14 14 13 13 14 14 13 13 14 14 14 13
10 9 9 9 11 10 9 8 7 7 7 7 7 8 7 6 4 7 8 7 6 4 6 6 6 6 6 7 6 3 4 7 8 8 8 8 8 8 9 9 10 8 5 4 3 7 5 5 6 6 4 5 5 5 6 7 6 7 7 8 9 7 7 8 9 9 10 11 11 12 12 12 13 13 13 12 12 12 13 14 15 14 13 13 14
10 9 9 10 10 11 10 9 8 7 8 8 7 7 7 7 7 2 2 5 5 3 1 1 3 4 4 4 6 5 6 4 5 6 7 8 7 7 9 11 10 9 5 1 3 6 6 4 4 5 4 4 6 4 5 6 5 7 7 7 7 8 8 8 8 10 10 11 11 11 12 12 12 13 13 12 11 12 13 13 14 13 12 13 14
11 10 10 11 10 9 9 9 8 7 7 8 8 8 8 8 7 7 6 3 1 3 3 5 6 6 6 6 6 7 6 6 6 7 8 8 6 6 7 8 14 8 4 3 3 5 6 3 3 3 3 3 4 4 4 5 4 6 7 7 7 7 8 8 8 10 9 11 10 11 12 12 12 12 13 13 11 11 12 12 13 14 14 14 13
9 9 13 11 9 8 8 7 7 6 7 8 8 8 8 7 7 8 8 8 7 7 6 6 8 9 8 7 8 8 8 8 8 8 8 6 5 7 7 7 7 8 8 6 5 6 5 3 3 3 2 3 5 4 4 4 4 6 6 6 6 7 7 8 8 9 9 9 10 10 11 11 12 12 12 12 12 12 12 12 12 14 14 13 13
8 7 8 9 7 5 7 7 7 6 7 7 8 8 8 8 8 8 7 8 7 7 6 7 7 9 12 10 10 8 9 10 10 9 8 5 3 5 5 7 7 7 5 7 6 8 4 2 1 2 1 3 3 5 4 4 4 4 4 5 6 7 7 7 7 8 9 9 9 11 11 11 11 11 12 12 13 11 10 11 11 12 13 13 12
7 6 8 8 8 6 6 7 6 7 6 7 8 8 7 7 8 7 7 7 7 7 7 7 4 4 5 6 10 11 11 11 9 7 8 7 4 2 5 6 7 7 7 8 7 8 5 3 1 1 1 2 3 3 3 4 3 4 5 5 4 6 7 6 7 7 8 9 9 10 10 10 11 11 11 11 12 11 10 10 10 11 11 14 12
7 6 7 8 7 7 5 6 8 9 7 6 7 8 8 9 9 8 8 8 9 9 8 6 6 7 8 10 10 9 9 7 4 7 8 7 4 5 7 7 6 7 8 7 7 8 5 2 0 1 0 1 3 4 3 5 4 4 3 4 5 5 7 7 7 7 7 8 9 9 9 10 10 10 10 11 11 11 11 10 9 9 10 12 11
6 9 11 12 9 7 6 6 6 7 7 6 6 6 6 7 9 8 8 9 9 8 8 7 7 7 9 9 5 4 4 3 5 8 8 7 6 6 6 7 7 7 7 7 8 8 2 0 0 0 1 1 3 3 2 4 5 5 2 3 5 6 7 6 7 7 7 8 8 8 8 9 9 9 9 9 11 10 11 10 9 9 9 10 10
6 7 9 12 8 9 7 7 6 7 7 7 7 6 6 6 8 9 9 8 8 9 9 9 8 8 9 5 4 6 7 9 8 8 7 7 7 7 6 7 7 8 8 8 8 4 2 2 2 2 1 1 2 3 2 3 5 4 1 2 3 5 5 4 6 6 7 7 7 8 8 8 9 9 9 9 9 9 10 10 9 8 8 8 9
6 7 8 9 9 8 8 7 6 7 7 7 7 6 6 8 7 7 7 8 7 6 7 7 8 8 8 10 13 13 9 9 9 8 8 8 8 7 7 7 7 8 8 8 4 4 3 3 3 1 1 0 1 1 2 3 4 5 2 0 2 3 4 4 4 5 6 7 7 7 8 8 8 8 9 9 10 10 9 9 9 8 8 7 8
6 7 8 8 8 7 8 8 7 8 7 7 7 6 5 5 6 6 7 8 7 7 7 7 7 8 8 14 15 18 11 8 7 7 8 8 8 9 8 7 7 8 7 5 4 4 3 4 3 3 1 0 0 1 1 3 3 4 2 0 1 2 4 4 4 4 5 6 6 7 7 8 8 8 8 8 8 8 9 9 9 8 7 7 7
7 7 8 8 8 7 7 7 7 7 7 7 7 6 7 5 6 6 7 6 6 7 7 7 6 5 5 9 14 15 9 7 7 8 8 8 8 6 6 6 6 7 6 6 7 5 6 6 5 4 3 2 2 1 1 2 2 3 1 1 1 1 2 2 4 5 4 5 6 6 7 7 7 7 8 8 8 8 8 9 9 9 8 7 6
7 8 8 9 9 8 7 6 6 7 7 8 9 8 8 6 6 6 6 6 7 7 8 8 8 6 5 5 6 8 8 7 7 8 8 8 7 6 7 8 6 6 5 4 6 5 7 7 5 5 4 5 4 3 3 2 1 1 1 2 1 1 0 1 2 2 2 4 5 6 7 7 7 7 8 8 8 8 9 9 10 9 9 8 7
7 8 8 8 7 7 7 8 7 7 7 6 7 7 8 8 7 8 7 8 8 8 7 8 8 8 5 6 7 8 8 8 8 8 8 8 7 8 8 7 7 8 6 6 5 5 5 6 6 6 5 5 4 4 4 3 2 1 2 5 3 2 0 0 0 0 1 2 4 5 6 6 7 7 7 7 6 7 8 8 8 9 9 9 8
7 8 8 8 8 7 8 7 7 7 7 7 7 8 8 8 8 8 8 8 8 8 8 8 7 7 7 7 7 8 8 8 8 8 8 7 7 7 8 7 7 8 7 7 7 7 7 7 7 7 7 7 6 6 5 5 4 3 3 6 6 5 4 3 2 1 2 2 2 3 5 5 6 6 7 7 6 6 7 8 8 8 7 7 7
7 8 8 8 8 8 8 8 8 8 6 7 7 7 7 8 8 7 6 8 8 6 6 7 8 8 8 8 8 8 8 8 9 9 9 9 8 8 8 7 8 7 6 6 6 7 7 8 7 7 7 7 6 6 7 6 6 4 5 7 7 6 6 5 4 2 1 1 2 1 3 4 6 5 7 7 7 7 7 7 7 8 8 7 7
7 7 8 8 8 8 8 7 8 8 7 7 7 7 7 7 7 7 8 7 7 7 7 7 7 8 8 8 8 8 8 8 9 9 9 8 9 9 9 8 8 8 7 6 7 8 8 8 7 7 7 6 6 7 7 7 7 7 5 7 7 7 7 6 3 3 2 2 2 1 1 4 5 6 5 6 6 6 7 8 8 8 8 7 7
6 7 7 9 9 9 9 9 8 8 9 8 7 7 8 7 7 7 7 8 8 8 8 9 8 8 7 8 8 8 9 8 9 9 9 9 9 9 8 8 7 7 7 7 8 8 8 7 7 8 7 7 7 8 8 8 8 7 6 6 8 12 11 10 6 5 5 2 2 1 1 2 4 5 5 5 6 5 6 5 6 7 8 7 7
8 6 7 9 10 11 10 9 9 9 9 8 8 8 8 7 8 8 8 8 8 8 8 9 9 9 8 8 8 8 8 8 9 9 9 9 9 9 9 8 8 7 7 8 8 8 8 7 7 7 7 8 8 8 7 7 8 8 7 8 11 13 11 11 10 9 6 4 2 1 1 1 2 4 5 5 4 5 5 5 5 6 6 6 7
9 8 7 7 8 8 9 10 10 9 9 9 9 9 9 8 8 8 8 8 8 8 8 8 9 9 8 9 9 8 8 8 8 8 8 8 8 9 9 8 8 7 8 8 7 7 6 7 7 8 8 8 8 8 7 7 7 8 9 11 13 13 13 11 8 9 10 6 4 3 1 1 2 4 6 6 6 5 5 4 5 5 5 4 5
Wind_Direction
129 135 144 158 150 151 147 125 112 107 104 104 107 109 108 108 105 106 92 90 94 89 86 79 72 65 59 53 47 40 34 26 17 16 19 9 6 37 40 47 48 47 52 42 47 65 64 59 53 49 39 37 5 356 353 357 352 348 348 345 341 341 340 334 327 321 318 322 311 311 316 315 315 317 312 315 317 319 316 317 320 321 319 317 313
153 150 146 127 126 120 109 105 101 98 96 99 101 99 99 99 104 94 96 90 83 84 83 80 74 68 63 55 48 40 32 27 16 12 15 9 351 35 41 45 37 40 60 49 50 65 66 64 56 50 42 31 9 359 359 358 353 351 351 351 348 345 346 339 334 327 325 327 321 322 319 322 316 321 318 320 319 319 318 317 316 315 313 313 312
133 124 124 125 111 106 106 105 106 106 108 107 110 109 102 97 92 97 100 93 85 88 83 76 70 68 66 59 50 41 31 23 14 14 12 8 351 22 51 53 39 54 66 61 60 66 67 65 59 45 30 28 17 13 7 360 358 356 352 349 345 337 333 331 322 328 325 325 324 327 327 323 319 324 321 314 310 312 311 312 313 309 306 308 309
133 127 122 116 112 108 106 108 106 112 113 117 117 117 115 111 104 97 99 94 91 85 81 76 71 67 63 59 53 43 33 21 15 14 13 359 0 351 48 60 48 67 81 74 67 72 81 75 62 41 41 41 28 18 7 3 1 356 348 341 331 326 324 321 321 313 317 320 330 324 319 316 320 320 316 311 312 310 306 305 307 306 307 307 309
130 128 124 125 123 119 117 112 113 113 116 117 114 110 110 110 108 101 84 81 86 88 83 79 75 67 61 59 54 46 36 24 16 12 5 1 359 352 351 58 62 60 83 85 84 83 87 97 71 50 55 51 28 22 7 3 356 350 339 327 320 316 317 319 319 317 319 317 317 317 316 314 314 316 319 323 323 318 315 311 313 312 308 306 302
128 130 135 134 130 124 120 118 119 121 123 121 118 115 111 108 105 97 97 95 90 87 87 82 80 74 66 59 54 50 40 29 23 11 3 359 356 356 350 44 67 60 83 92 91 89 90 83 57 70 68 59 37 24 7 353 347 342 330 321 317 312 311 316 319 321 320 321 324 320 322 319 321 322 327 328 324 320 317 315 314 312 314 311 307
134 138 137 135 130 127 126 127 127 127 126 124 115 105 106 110 109 108 102 97 95 91 88 89 85 81 73 63 55 46 39 31 24 13 4 2 357 354 358 359 60 25 85 99 96 91 50 52 74 83 86 77 52 26 359 344 344 336 326 318 316 314 311 314 321 323 323 322 322 323 323 327 323 319 323 320 316 318 316 318 315 314 304 305 305
141 138 135 135 133 130 131 129 129 130 123 109 102 101 98 97 107 113 110 107 105 99 95 93 89 85 80 71 57 49 39 31 21 11 7 1 355 354 354 335 16 17 65 90 98 89 58 61 105 115 114 96 64 26 0 342 336 334 325 321 318 317 310 308 317 320 321 321 322 326 325 314 314 307 311 316 316 312 316 313 312 314 313 306 298
144 142 142 142 140 136 132 131 128 123 117 110 104 101 100 102 101 102 104 105 97 94 95 91 90 87 81 72 59 47 43 31 21 6 1 0 0 355 336 337 315 40 45 93 96 94 82 70 127 131 90 66 55 23 355 339 337 331 323 323 317 315 304 301 312 314 314 317 317 317 315 313 314 317 319 322 319 314 314 309 300 306 304 304 298
146 143 145 145 140 136 133 129 126 120 116 117 117 116 114 108 100 94 97 102 101 95 86 83 84 86 83 69 59 49 40 31 17 19 20 355 352 341 334 332 325 44 47 92 95 94 95 77 76 62 86 79 24 356 342 335 328 324 317 318 314 310 301 303 309 310 311 315 318 319 318 318 317 317 311 303 301 304 305 307 304 302 300 297 292
142 144 145 145 138 134 129 127 123 122 122 119 116 113 111 108 104 100 99 103 105 102 97 94 92 86 85 77 58 50 37 18 14 26 30 22 8 355 335 323 314 62 30 77 134 95 55 90 100 54 50 28 333 336 331 325 317 319 316 311 306 305 306 306 302 305 308 307 310 312 313 314 315 315 307 298 305 308 309 306 302 303 300 304 304
143 145 146 143 140 137 135 130 128 129 124 120 117 115 112 108 106 104 103 107 112 110 108 108 105 101 92 80 63 46 34 10 21 22 18 15 14 359 333 331 349 64 38 27 111 162 109 81 81 61 36 351 333 328 318 310 311 313 312 306 303 300 295 293 301 304 302 306 308 310 310 311 312 313 311 313 313 310 305 302 299 297 298 296 294
146 147 150 146 142 140 136 134 134 132 129 125 120 118 117 114 110 105 104 110 112 116 122 117 112 110 96 80 67 47 42 12 24 25 21 15 9 13 359 356 15 352 9 347 92 173 100 85 69 31 285 315 322 312 302 307 309 309 304 300 296 294 296 299 292 283 287 291 297 305 308 310 311 312 312 309 309 305 305 302 301 295 291 288 290
151 152 149 146 143 141 138 136 136 134 129 124 120 119 119 118 117 110 104 95 103 122 130 128 129 115 104 91 72 55 41 15 29 27 23 18 13 17 1 13 26 18 8 3 337 126 90 100 80 336 300 294 298 300 312 319 312 307 306 301 296 296 298 295 295 292 287 281 292 299 302 303 303 306 307 308 308 306 305 301 301 296 292 287 287
155 154 148 146 142 142 138 135 135 132 126 123 121 123 125 123 117 118 114 114 112 118 132 138 136 129 117 101 80 51 28 19 30 30 26 20 14 25 3 9 21 13 7 7 359 39 114 126 133 317 279 299 282 322 335 326 315 308 306 306 302 299 297 298 297 297 297 294 289 290 292 295 298 304 304 303 301 297 295 296 297 295 290 286 273
155 151 147 146 143 140 136 136 134 130 127 127 132 137 138 137 135 134 122 116 108 95 90 109 125 128 128 110 85 57 26 23 31 31 28 22 23 23 10 17 17 5 3 4 359 348 143 124 101 322 302 282 316 332 330 333 324 318 316 311 308 303 296 289 288 289 292 294 293 289 290 290 295 299 303 303 303 301 298 294 292 287 288 289 288
154 150 146 143 140 138 138 136 133 131 133 135 139 139 133 129 127 124 119 121 112 103 104 100 114 127 130 115 105 85 46 27 39 35 28 25 27 11 11 18 12 5 354 349 346 339 295 226 260 305 296 315 322 332 329 339 326 321 315 312 309 307 300 298 296 301 302 296 292 288 284 293 303 305 304 302 302 305 307 303 300 300 294 290 291
150 146 144 143 139 139 139 137 135 134 135 139 140 138 134 130 133 131 131 132 127 132 120 108 113 125 134 143 135 115 88 44 53 41 33 25 26 24 359 18 3 3 352 345 350 347 303 286 294 306 321 318 325 330 327 333 327 319 317 316 316 312 303 301 310 310 305 296 287 290 303 307 308 308 307 308 308 307 305 302 303 301 291 282 293
149 146 145 141 138 137 137 135 135 135 137 143 142 141 143 146 147 142 146 144 146 142 134 127 131 132 139 146 143 130 132 87 56 42 45 32 29 10 11 21 14 354 353 341 340 344 329 305 314 322 319 318 326 327 324 326 325 317 318 317 310 307 301 313 319 316 318 311 310 318 317 316 315 314 314 311 308 306 303 300 299 297 293 288 286
145 140 138 137 136 135 136 135 136 138 142 144 142 144 144 136 143 149 154 148 148 151 145 150 154 173 175 147 149 145 146 146 107 52 43 40 36 24 21 30 6 351 344 338 337 326 315 313 319 312 314 319 323 323 322 322 323 318 322 318 306 307 312 321 314 317 316 309 314 320 318 316 316 317 317 316 313 309 309 303 303 302 299 296 287
139 139 137 136 136 135 134 136 137 139 141 143 141 138 141 146 148 143 143 142 142 151 159 164 170 181 185 172 145 159 155 158 201 187 43 53 55 51 27 18 357 347 330 325 319 311 304 307 312 312 318 324 324 322 320 320 323 323 315 305 297 299 311 314 314 322 317 318 320 321 321 320 320 319 320 319 317 315 315 313 311 305 301 300 293
139 137 139 138 135 133 134 136 137 140 143 137 138 146 150 134 136 137 138 138 146 160 161 168 176 183 181 172 144 152 163 160 180 239 42 64 66 62 42 331 332 344 340 326 316 308 299 301 316 316 319 323 321 318 319 319 321 325 314 311 315 330 332 315 316 325 326 324 323 322 323 324 324 323 324 322 319 317 323 320 313 309 300 293 292
140 138 137 135 135 136 137 138 140 141 141 142 141 144 139 129 130 131 136 143 162 175 179 185 184 188 149 150 143 143 152 172 171 179 85 74 43 34 31 356 334 0 346 320 311 303 297 310 313 318 319 321 321 319 320 317 317 321 329 332 329 333 333 328 329 332 328 327 324 326 327 327 327 328 330 329 324 324 324 320 317 314 306 302 294
137 136 136 135 135 136 137 136 137 138 142 143 141 141 137 135 140 151 161 165 179 185 200 176 174 160 154 145 148 150 152 149 183 169 79 59 37 18 5 355 351 347 343 325 311 306 316 320 315 317 322 328 324 320 315 314 317 321 331 330 332 336 336 333 340 336 331 329 330 328 330 328 327 330 335 332 326 328 325 321 321 321 316 310 307
134 135 137 136 136 137 133 136 140 141 143 141 143 140 140 144 153 169 164 174 176 181 213 172 162 159 146 161 168 173 193 171 197 108 71 44 25 3 353 352 341 354 349 325 322 317 319 320 323 323 321 323 322 313 316 330 326 326 331 332 335 345 340 342 341 339 337 335 332 329 327 329 326 323 325 326 324 326 328 329 330 329 325 318 302
137 139 139 139 140 139 138 140 141 142 142 143 149 155 153 160 169 181 176 188 190 194 201 158 144 142 139 155 160 165 170 185 183 59 47 39 9 346 338 337 334 336 339 314 313 322 325 324 319 320 322 321 320 307 335 328 332 331 336 336 340 344 346 345 344 342 338 336 334 331 328 327 329 328 321 326 336 337 334 334 335 340 343 340 340
140 140 143 144 143 143 144 147 148 148 147 153 157 165 165 166 189 182 176 174 156 151 142 141 151 137 143 128 128 139 151 128 96 52 28 16 345 330 335 327 339 341 341 332 334 331 322 318 307 303 305 309 311 332 335 332 337 339 340 339 340 347 344 351 343 339 339 338 333 330 328 327 321 327 335 343 345 341 341 337 338 339 338 340 340
145 148 149 148 147 149 148 152 150 151 156 155 164 170 178 164 128 133 168 155 140 139 118 110 110 126 134 117 125 135 142 166 168 109 259 320 304 310 307 314 313 325 317 319 320 316 311 309 315 321 332 332 339 346 343 337 338 339 343 341 345 344 343 343 344 344 343 336 330 328 327 331 334 334 335 343 349 345 347 345 346 345 348 345 1
146 149 151 150 150 149 151 155 156 153 154 122 93 181 173 117 128 109 26 134 137 134 127 117 119 120 129 133 127 144 170 190 221 206 189 203 233 275 306 301 307 306 291 305 313 313 325 327 332 331 331 323 344 346 342 344 337 342 347 348 350 346 348 355 352 347 341 339 337 335 334 336 334 335 336 342 352 351 349 348 350 352 348 359 8
149 154 155 153 150 150 154 158 153 145 130 118 114 56 49 135 146 134 127 35 118 133 134 146 151 124 117 165 160 154 182 206 203 187 210 222 235 240 252 266 270 279 296 305 267 283 303 319 312 317 306 333 348 347 345 344 343 342 344 347 350 350 351 351 350 345 342 339 335 336 337 336 337 339 341 344 346 354 353 354 352 353 357 3 3
155 157 157 156 157 156 156 158 158 143 137 144 136 115 99 32 31 105 144 155 136 119 120 131 131 138 142 148 198 160 171 179 181 201 222 234 243 256 267 277 292 294 294 331 335 326 309 317 310 315 308 338 350 337 347 350 345 346 342 344 347 346 343 349 343 340 341 339 338 338 337 342 341 340 343 345 349 351 354 355 356 360 3 0 360
158 160 157 154 154 156 158 159 162 154 151 156 143 133 122 114 84 44 64 87 63 91 127 145 151 155 158 160 164 242 223 200 197 216 231 248 263 275 299 308 302 309 298 224 269 288 287 283 301 298 318 352 326 337 354 356 347 350 346 349 346 344 348 350 339 341 343 342 341 339 342 342 343 342 343 344 350 355 356 358 2 2 1 3 8
157 159 155 156 157 159 160 161 172 171 159 154 149 140 137 142 138 138 23 43 104 122 230 247 212 189 186 203 210 189 190 209 224 242 253 265 283 313 318 307 301 303 312 189 216 276 280 277 279 292 339 349 332 347 347 0 358 350 355 346 341 341 344 343 336 348 345 344 342 342 342 343 344 345 346 346 353 358 358 2 3 3 2 6 8
159 159 160 160 160 167 171 172 176 177 162 156 157 154 158 158 163 157 158 159 282 312 304 261 249 253 251 234 219 225 235 242 250 254 268 279 313 338 334 309 306 300 202 290 304 261 260 279 304 311 331 349 346 353 351 353 357 354 353 343 336 337 339 342 352 348 345 344 345 343 345 343 345 348 348 347 352 358 1 3 4 7 9 8 8
154 153 158 162 166 170 173 175 176 178 167 158 161 165 166 170 160 159 167 171 190 207 223 243 246 223 226 238 241 241 244 247 249 259 269 296 336 333 331 331 332 335 340 340 317 259 266 317 302 306 348 8 348 5 345 346 353 353 353 344 344 342 343 349 346 343 345 342 345 345 342 343 346 348 350 350 351 359 2 4 7 10 10 9 9
150 152 164 165 168 167 173 176 180 175 171 168 169 172 172 165 164 176 179 177 184 205 234 230 223 231 228 237 244 246 247 248 255 262 272 289 320 12 330 301 309 298 295 297 300 284 284 288 266 324 6 15 358 5 340 347 330 342 348 358 353 347 348 347 343 344 343 343 342 343 345 347 347 349 349 351 355 354 359 3 4 8 12 13 11
159 161 172 176 179 177 171 180 186 184 177 167 170 175 175 170 174 172 173 181 194 211 218 229 231 257 240 249 240 239 242 248 256 275 278 269 240 209 229 253 262 279 287 280 287 285 296 300 248 10 43 37 5 360 350 343 320 334 349 5 356 0 352 342 342 344 345 344 340 343 344 345 346 349 353 352 352 353 356 1 4 5 10 12 12
181 175 181 181 178 180 180 177 187 188 184 175 176 170 171 171 181 176 181 189 199 207 219 223 205 205 212 238 215 209 234 249 270 288 279 271 239 227 235 238 243 246 260 267 267 265 264 271 256 58 54 66 16 359 354 341 328 328 355 0 4 357 359 356 347 348 344 343 341 339 340 341 345 348 350 354 355 354 353 354 2 4 3 8 16
188 177 175 175 179 184 186 181 183 184 190 183 183 174 181 158 173 182 186 194 201 212 215 213 205 207 219 229 215 190 167 214 230 245 253 257 246 235 233 235 237 245 247 251 263 253 230 251 230 128 101 60 13 354 341 335 335 327 355 28 8 6 7 360 353 345 346 343 338 338 338 338 342 346 349 355 354 353 353 352 353 2 11 11 10
180 174 173 170 178 188 186 184 179 184 181 182 185 175 179 177 176 180 185 183 185 190 191 180 194 208 220 205 184 150 179 212 218 231 240 252 252 244 222 229 234 235 242 249 238 226 213 210 184 114 92 353 2 348 317 333 338 325 4 58 36 19 1 3 356 348 341 335 338 338 340 336 340 344 350 356 351 350 355 355 351 355 6 15 13
182 173 177 177 177 184 190 181 180 187 178 180 178 168 176 183 185 181 184 191 201 205 212 214 210 218 206 209 195 177 187 201 216 220 225 230 239 244 236 227 228 237 233 231 230 205 195 173 171 158 163 245 325 3 320 336 342 346 357 316 50 32 6 1 0 351 340 341 340 340 338 335 338 352 352 344 348 351 351 356 358 354 355 7 15
177 165 180 187 177 173 183 190 187 186 176 178 178 182 181 183 188 182 182 192 201 206 207 214 220 225 212 196 186 185 188 210 205 214 226 230 232 233 229 229 225 218 213 214 191 193 179 154 177 169 170 203 279 312 346 345 331 337 327 227 74 47 22 351 351 353 346 339 336 341 338 335 334 347 349 350 351 348 351 355 356 355 351 356 6
175 170 181 185 183 184 184 187 177 178 180 179 188 191 198 189 193 194 192 192 195 200 208 225 245 247 223 198 192 187 196 205 208 215 223 227 230 234 240 245 242 232 222 208 195 176 160 168 178 189 181 197 204 197 214 270 291 321 329 198 119 95 30 346 354 358 347 345 340 338 340 337 340 344 348 350 349 350 352 353 354 356 350 354 356
166 173 180 184 189 190 191 182 170 181 186 187 186 193 199 205 201 196 198 203 212 215 216 220 227 222 222 210 189 188 211 218 223 221 224 230 236 242 245 247 248 247 231 204 198 172 157 166 185 204 205 202 204 190 197 216 228 291 229 189 175 152 49 356 348 341 347 346 340 340 339 336 335 345 350 349 353 353 350 353 353 353 354 351 360
166 170 174 182 186 187 198 199 193 180 180 188 198 200 200 201 206 208 201 206 216 217 220 221 221 210 200 193 186 194 210 218 224 229 232 232 232 241 242 248 240 232 222 209 197 175 174 181 186 193 209 223 218 205 208 211 208 212 167 168 168 190 205 214 238 235 134 44 354 340 339 337 332 343 346 343 349 353 351 350 347 354 356 353 358
164 169 175 180 184 189 196 202 205 199 192 181 188 200 203 205 208 211 209 207 200 206 217 223 224 219 208 202 205 206 213 215 222 225 230 235 237 238 236 231 230 227 220 207 200 194 192 190 194 197 205 212 215 219 219 216 207 205 163 175 178 189 202 206 209 167 98 78 19 338 331 333 327 335 343 341 340 353 353 348 354 355 356 349 348
166 168 173 177 185 190 196 197 196 202 207 205 199 196 201 202 201 203 204 207 215 218 215 216 214 222 222 213 208 214 216 216 222 223 226 230 234 236 238 238 233 227 220 208 197 199 202 204 203 203 207 212 210 220 224 218 213 210 174 175 179 190 201 209 201 172 156 149 116 43 346 332 326 327 340 345 348 352 352 355 352 351 349 354 349
172 164 179 184 187 192 198 193 200 203 204 205 208 209 207 208 209 211 215 220 221 225 229 230 223 219 213 217 213 214 216 219 222 225 227 230 233 234 230 222 215 214 210 207 209 208 208 208 207 206 211 209 209 220 223 219 217 214 190 182 184 183 193 197 206 195 173 158 122 99 9 336 320 322 330 344 341 343 356 347 347 351 352 346 352
191 189 181 186 192 194 193 197 200 199 206 208 206 209 212 213 215 213 214 217 219 222 223 227 232 232 227 223 211 208 211 215 220 226 230 232 232 230 221 217 213 213 208 216 218 218 219 212 208 207 205 205 210 213 215 216 216 216 206 190 193 189 189 191 191 198 187 164 140 115 64 359 333 318 322 335 333 335 341 345 356 350 346 350 358
206 200 196 184 185 192 195 194 195 202 205 206 205 210 210 211 214 217 216 215 218 221 225 225 226 227 227 231 232 230 217 210 213 219 224 227 229 229 229 225 222 219 216 220 224 223 222 219 215 211 207 211 214 217 216 215 217 214 209 201 193 188 190 195 200 193 184 186 168 154 145 323 318 318 309 311 320 337 344 344 342 350 353 351 356
212 208 212 200 184 178 180 189 195 199 200 204 207 210 211 212 215 216 217 218 218 218 216 216 221 226 230 230 230 229 231 231 229 222 219 220 222 223 223 221 219 219 222 224 228 227 223 220 217 216 216 216 218 221 219 218 219 219 211 201 192 192 194 193 198 208 199 187 170 160 155 213 319 315 309 307 320 328 328 333 344 351 350 346 350